Terug naar catalogus

METEOR 1-5 DEB

ActiefPO
NORAD 58398·DEBRIS·🇷🇺 Russia

Gelanceerd Jun 23, 1970 vanaf Plesetsk Cosmodrome

Loading…

Volgende Passages (komende 24 uur)

TLE

VersSource: Space-Track

Epoch: Sep 14, 2026, 08:48 UTC

1 58398U 70047E   26257.36707842  .00002605  00000-0  96967-3 0  9993
2 58398  81.2061 131.7230 0049405 131.9244 228.6167 14.31156687149622

Volg METEOR 1-5 DEB in realtime met AllMySat

Download on the App Store